When you browse on this site, cookies collect data to enhance your experience and personalize the content and advertising you see.
Visit our Privacy Policy to learn more. By continuing to use the site, you agree to this use of cookies and data.
  • In Hungary
  • List of Countries
  • For 7 days
  • Water Temperature
  • Weather Map
  • News
  • Weather Widgets
  • user-avatar
    Login

    Hourly Weather Kielpiny

    Today, 15 December, Sunday

    Time Temperature Precipitation Wind Pressure Humidity
    00:00 +3°C° 0.4 mm 6 mps 743 mmHg 82%
    01:00 +3°C° 0 mm 5 mps 744 mmHg 85%
    02:00 +2°C° 0 mm 5 mps 744 mmHg 82%
    03:00 +2°C° 0 mm 5 mps 745 mmHg 78%
    04:00 +2°C° 0 mm 5 mps 746 mmHg 75%
    05:00 +1°C° 0 mm 4 mps 746 mmHg 77%
    06:00 +1°C° 0 mm 4 mps 746 mmHg 80%
    07:00 +1°C° 0 mm 4 mps 746 mmHg 82%
    08:00 +1°C° 0.1 mm 5 mps 746 mmHg 80%
    09:00 +2°C° 0.1 mm 5 mps 745 mmHg 77%
    10:00 +3°C° 0.1 mm 6 mps 745 mmHg 75%
    11:00 +4°C° 0.7 mm 6 mps 745 mmHg 78%
    12:00 +5°C° 0.7 mm 6 mps 744 mmHg 80%
    13:00 +5°C° 0.7 mm 6 mps 744 mmHg 83%
    14:00 +5°C° 0.3 mm 6 mps 745 mmHg 80%
    15:00 +7°C° 0.3 mm 5 mps 746 mmHg 77%
    16:00 +7°C° 0.3 mm 4 mps 747 mmHg 74%
    17:00 +6°C° 0 mm 4 mps 747 mmHg 75%
    18:00 +5°C° 0 mm 4 mps 748 mmHg 75%
    19:00 +5°C° 0 mm 4 mps 749 mmHg 75%
    20:00 +4°C° 0 mm 4 mps 749 mmHg 75%
    21:00 +4°C° 0 mm 4 mps 750 mmHg 76%
    22:00 +4°C° 0 mm 4 mps 751 mmHg 76%
    23:00 +4°C° 0 mm 4 mps 751 mmHg 80%

    Tomorrow, 16 December, Monday

    Time Temperature Precipitation Wind Pressure Humidity
    00:00 +4°C° 0 mm 4 mps 751 mmHg 83%
    01:00 +4°C° 0 mm 3 mps 752 mmHg 87%
    02:00 +4°C° 0 mm 3 mps 752 mmHg 87%
    03:00 +4°C° 0 mm 3 mps 752 mmHg 87%
    04:00 +4°C° 0 mm 3 mps 753 mmHg 88%
    05:00 +3°C° 0 mm 3 mps 753 mmHg 88%
    06:00 +3°C° 0 mm 3 mps 753 mmHg 89%
    07:00 +4°C° 0 mm 2 mps 753 mmHg 90%
    08:00 +4°C° 0 mm 2 mps 753 mmHg 89%
    09:00 +5°C° 0 mm 2 mps 753 mmHg 88%
    10:00 +5°C° 0 mm 2 mps 754 mmHg 87%
    11:00 +6°C° 0 mm 2 mps 753 mmHg 87%
    12:00 +7°C° 0 mm 2 mps 753 mmHg 86%
    13:00 +8°C° 0 mm 2 mps 753 mmHg 85%
    14:00 +7°C° 0 mm 2 mps 753 mmHg 87%
    15:00 +7°C° 0 mm 2 mps 753 mmHg 88%
    16:00 +7°C° 0 mm 2 mps 753 mmHg 90%
    17:00 +7°C° 0 mm 2 mps 753 mmHg 89%
    18:00 +7°C° 0 mm 3 mps 752 mmHg 88%
    19:00 +7°C° 0 mm 3 mps 752 mmHg 87%
    20:00 +7°C° 0 mm 3 mps 752 mmHg 87%
    21:00 +5°C° 0 mm 3 mps 752 mmHg 88%
    22:00 +5°C° 0 mm 3 mps 751 mmHg 88%
    23:00 +5°C° 0 mm 3 mps 751 mmHg 88%

    Day after tomorrow, 17 December, Tuesday

    Time Temperature Precipitation Wind Pressure Humidity
    00:00 +6°C° 0 mm 2 mps 751 mmHg 89%
    01:00 +5°C° 0 mm 2 mps 751 mmHg 89%
    02:00 +5°C° 0 mm 2 mps 751 mmHg 89%
    03:00 +5°C° 0 mm 2 mps 751 mmHg 89%
    04:00 +5°C° 0 mm 2 mps 751 mmHg 89%
    05:00 +5°C° 0 mm 2 mps 751 mmHg 89%
    06:00 +5°C° 0 mm 2 mps 751 mmHg 89%
    07:00 +5°C° 0 mm 2 mps 751 mmHg 88%
    08:00 +5°C° 0 mm 3 mps 751 mmHg 85%
    09:00 +5°C° 0 mm 3 mps 751 mmHg 81%
    10:00 +7°C° 0 mm 3 mps 751 mmHg 78%
    11:00 +8°C° 0 mm 2 mps 751 mmHg 77%
    12:00 +8°C° 0 mm 2 mps 751 mmHg 76%
    13:00 +9°C° 0 mm 2 mps 751 mmHg 74%
    14:00 +8°C° 0 mm 2 mps 751 mmHg 77%
    15:00 +8°C° 0 mm 2 mps 751 mmHg 80%
    16:00 +7°C° 0 mm 2 mps 751 mmHg 83%
    17:00 +8°C° 0 mm 1 mps 751 mmHg 85%
    18:00 +8°C° 0 mm 1 mps 752 mmHg 86%
    19:00 +7°C° 0 mm 1 mps 752 mmHg 88%
    20:00 +7°C° 0 mm 1 mps 752 mmHg 88%
    21:00 +7°C° 0 mm 1 mps 752 mmHg 89%
    22:00 +6°C° 0 mm 2 mps 752 mmHg 90%
    23:00 +6°C° 0 mm 2 mps 752 mmHg 90%

    18 December, Wednesday

    Time Temperature Precipitation Wind Pressure Humidity
    00:00 +6°C° 0 mm 2 mps 752 mmHg 90%
    01:00 +5°C° 0 mm 2 mps 752 mmHg 90%
    02:00 +5°C° 0 mm 2 mps 752 mmHg 90%
    03:00 +6°C° 0 mm 1 mps 752 mmHg 90%
    04:00 +6°C° 0 mm 1 mps 752 mmHg 90%
    05:00 +5°C° 0 mm 2 mps 752 mmHg 90%
    06:00 +5°C° 0 mm 2 mps 752 mmHg 90%
    07:00 +5°C° 0 mm 2 mps 752 mmHg 90%
    08:00 +5°C° 0 mm 2 mps 752 mmHg 88%
    09:00 +6°C° 0 mm 2 mps 752 mmHg 85%
    10:00 +6°C° 0 mm 2 mps 753 mmHg 83%
    11:00 +7°C° 0 mm 2 mps 753 mmHg 80%
    12:00 +8°C° 0 mm 2 mps 753 mmHg 76%
    13:00 +9°C° 0 mm 2 mps 753 mmHg 72%
    14:00 +8°C° 0 mm 2 mps 753 mmHg 76%
    15:00 +7°C° 0 mm 2 mps 753 mmHg 79%
    16:00 +7°C° 0 mm 2 mps 753 mmHg 82%
    17:00 +6°C° 0 mm 2 mps 753 mmHg 84%
    18:00 +6°C° 0 mm 2 mps 753 mmHg 85%
    19:00 +7°C° 0 mm 1 mps 753 mmHg 86%
    20:00 +7°C° 0 mm 1 mps 753 mmHg 87%
    21:00 +7°C° 0 mm 1 mps 753 mmHg 88%
    22:00 +7°C° 0 mm 1 mps 754 mmHg 89%
    23:00 +7°C° 0 mm 1 mps 753 mmHg 90%

    19 December, Thursday

    Time Temperature Precipitation Wind Pressure Humidity
    00:00 +6°C° 0 mm 1 mps 753 mmHg 92%
    01:00 +5°C° 0 mm 2 mps 753 mmHg 93%
    02:00 +5°C° 0 mm 2 mps 753 mmHg 93%
    03:00 +5°C° 0 mm 2 mps 753 mmHg 93%
    04:00 +5°C° 0 mm 2 mps 753 mmHg 92%
    05:00 +5°C° 0 mm 2 mps 753 mmHg 91%
    06:00 +4°C° 0 mm 3 mps 753 mmHg 90%
    07:00 +4°C° 0 mm 3 mps 753 mmHg 89%
    08:00 +4°C° 0 mm 3 mps 753 mmHg 88%
    09:00 +4°C° 0 mm 3 mps 753 mmHg 86%
    10:00 +4°C° 0 mm 4 mps 753 mmHg 84%
    11:00 +5°C° 0 mm 4 mps 753 mmHg 82%
    12:00 +5°C° 0 mm 4 mps 753 mmHg 80%
    13:00 +5°C° 0 mm 4 mps 752 mmHg 79%
    14:00 +5°C° 0 mm 4 mps 752 mmHg 81%
    15:00 +5°C° 0 mm 4 mps 752 mmHg 82%
    16:00 +4°C° 0 mm 4 mps 752 mmHg 84%
    17:00 +4°C° 0 mm 4 mps 752 mmHg 85%
    18:00 +4°C° 0 mm 4 mps 751 mmHg 86%
    19:00 +4°C° 0 mm 3 mps 751 mmHg 88%
    20:00 +4°C° 0 mm 3 mps 751 mmHg 88%
    21:00 +4°C° 0 mm 4 mps 751 mmHg 89%
    22:00 +4°C° 0 mm 4 mps 751 mmHg 90%
    23:00 +4°C° 0 mm 4 mps 750 mmHg 91%

    20 December, Friday

    Time Temperature Precipitation Wind Pressure Humidity
    00:00 +4°C° 0 mm 4 mps 750 mmHg 92%
    01:00 +4°C° 0 mm 4 mps 750 mmHg 94%
    02:00 +4°C° 0 mm 4 mps 749 mmHg 94%
    03:00 +4°C° 0 mm 4 mps 749 mmHg 95%
    04:00 +4°C° 0 mm 3 mps 748 mmHg 95%
    05:00 +4°C° 0 mm 4 mps 748 mmHg 95%
    06:00 +5°C° 0 mm 4 mps 748 mmHg 94%
    07:00 +5°C° 0 mm 4 mps 747 mmHg 93%
    08:00 +5°C° 0 mm 4 mps 747 mmHg 92%
    09:00 +5°C° 0 mm 4 mps 747 mmHg 91%
    10:00 +5°C° 0 mm 4 mps 747 mmHg 89%
    11:00 +6°C° 0 mm 4 mps 747 mmHg 86%
    12:00 +7°C° 0 mm 4 mps 746 mmHg 83%
    13:00 +7°C° 0 mm 5 mps 746 mmHg 80%
    14:00 +7°C° 0 mm 5 mps 745 mmHg 83%
    15:00 +6°C° 0 mm 5 mps 745 mmHg 85%
    16:00 +5°C° 0 mm 5 mps 744 mmHg 88%
    17:00 +5°C° 0 mm 5 mps 744 mmHg 89%
    18:00 +3°C° 0 mm 5 mps 743 mmHg 90%
    19:00 +3°C° 0 mm 5 mps 743 mmHg 92%
    20:00 +3°C° 0 mm 5 mps 742 mmHg 91%
    21:00 +3°C° 0 mm 5 mps 741 mmHg 91%
    22:00 +3°C° 0 mm 5 mps 741 mmHg 91%
    23:00 +5°C° 0 mm 5 mps 740 mmHg 90%
    Show more